Tracking 19638 objects as of 20-May-2019
HD Live streaming from Space Station
objects crossing your sky now

AMC-3 (GE-3)

Track AMC-3 (GE-3) now!
AMC-3 (GE-3) is classified as:


NORAD ID: 24936
Int'l Code: 1997-050A
Perigee: 35,780.6 km
Apogee: 35,806.7 km
Inclination: 1.9 °
Period: 1,436.1 minutes
Semi major axis: 42164 km
RCS: 8.252 m2 (large)
Launch date: September 4, 1997
Source: SOCIETE EUROPEENNE DES SATELLITES (SES)
Launch site: AIR FORCE EASTERN TEST RANGE (AFETR)

Broadcasting, business, cable; CONUS, Hawaii, Caribbean, southern Canada; 24 Ku- and 24 C-band
aabbcc
Your satellite tracking list
Your tracking list is empty




NASA's NSSDC Master Catalog

Two Line Element Set (TLE):
1 24936U 97050A   19140.14249687 -.00000269  00000-0  00000+0 0  9998
2 24936   1.9043  88.5378 0003090 333.8704 154.4059  1.00272204 79521
Source of the keplerian elements: AFSPC